Presure
242 241 237 246 243 234 253 248 247 232 240 247 252 260 262 261 258 255 266 253 287 254 250 246 247 247 235 240 253 267 406 460 445 458 443 439 433 428 437 424 436 434 432 429
246 242 238 250 248 248 247 256 268 264 262 261 265 267 279 279 271 267 249 248 234 223 228 237 245 260 283 360 456 449 446 454 442 430 419 387 388 399 411 412 425 424 424 415
257 251 256 264 253 252 253 245 247 263 273 278 279 260 252 249 247 214 221 226 237 253 253 268 300 438 457 449 444 432 433 410 384 380 383 398 404 404 407 415 411 408 413 413
270 265 267 270 265 254 256 262 267 254 247 241 238 222 215 222 233 244 247 253 269 287 368 437 431 428 422 424 415 392 384 381 392 401 397 395 387 392 406 422 422 416 404 404
262 261 256 251 246 250 246 238 230 210 211 220 235 237 233 243 250 269 282 295 422 432 424 422 418 414 407 399 389 386 400 403 379 364 378 390 395 405 405 411 412 409 406 398
246 243 245 242 238 227 209 212 218 221 227 234 242 252 265 282 310 454 431 433 431 427 421 414 411 406 401 399 406 401 372 362 382 399 406 404 406 410 403 416 412 411 403 393
246 242 228 210 212 217 217 233 235 239 260 274 286 360 458 446 421 383 399 439 430 418 416 408 407 404 402 390 372 368 368 409 408 401 405 410 410 415 408 403 405 409 399 384
211 207 214 220 226 242 256 262 274 283 409 472 433 403 396 403 453 446 437 430 422 417 411 402 393 389 381 371 377 370 364 412 409 409 411 416 417 410 401 399 394 401 391 382
216 233 245 252 254 268 274 288 491 365 431 414 404 397 397 398 396 435 445 437 430 424 415 402 398 397 396 391 378 362 376 419 416 415 416 419 415 407 407 401 405 394 383 384
246 247 256 265 276 482 349 326 435 415 397 390 395 399 398 394 384 381 435 440 436 433 425 413 403 400 392 380 378 373 373 383 422 425 416 411 410 412 415 402 402 388 374 376
258 268 276 356 341 319 337 410 409 409 403 403 402 395 392 379 374 374 375 452 443 434 429 418 412 402 395 387 387 373 363 357 426 424 411 410 410 409 412 394 398 379 385 381
345 358 336 316 307 297 361 353 349 347 347 348 359 378 388 383 377 373 369 372 424 452 440 424 412 409 404 402 400 388 364 353 414 417 409 403 399 401 417 402 387 370 372 354
337 317 306 310 295 299 312 311 309 311 314 310 314 319 324 324 330 338 350 365 372 372 452 448 429 409 399 409 410 397 378 364 406 410 406 395 396 404 396 400 373 366 367 352
307 325 327 321 299 331 365 362 356 353 352 338 321 308 308 307 312 318 323 326 333 349 365 441 450 428 414 396 398 401 387 372 395 411 400 391 396 408 400 381 370 379 367 352
342 346 342 337 348 344 367 372 381 387 399 407 391 375 345 321 303 307 312 319 318 326 340 364 438 445 440 408 383 401 395 377 387 413 392 387 387 393 392 367 365 360 356 343
344 341 351 354 350 353 356 364 369 384 409 424 424 415 404 391 353 314 305 306 315 317 323 337 367 448 451 424 397 385 403 386 386 411 387 382 394 395 386 354 370 374 345 338
338 342 341 341 341 340 342 344 344 354 367 386 411 414 408 413 380 386 361 302 311 309 316 323 338 372 449 435 400 402 412 395 384 405 385 382 391 397 385 366 348 362 336 321
339 334 336 337 345 340 335 339 347 356 365 381 391 401 401 412 393 398 405 292 305 305 309 316 326 343 456 451 429 395 418 406 382 402 388 389 380 390 355 361 370 348 325 319
339 339 338 338 340 342 343 338 340 349 360 378 393 395 410 390 401 397 385 291 294 296 310 309 317 332 348 459 444 393 418 421 387 400 378 393 390 392 354 348 359 334 318 314
334 335 336 335 336 341 344 345 347 351 358 374 388 403 399 404 390 382 400 377 373 301 302 305 309 322 335 399 460 389 416 438 390 398 371 379 395 397 371 361 350 327 314 314
330 331 336 338 338 341 345 347 351 354 368 379 393 405 400 397 406 385 375 386 387 382 296 299 304 313 326 339 470 403 414 439 410 395 391 370 391 395 358 374 342 323 310 311
330 336 340 341 342 346 348 358 367 378 388 400 404 250 406 392 401 393 382 372 379 383 346 302 298 306 315 329 347 413 413 437 437 396 400 375 386 366 351 372 330 316 314 304
338 340 342 345 350 359 366 378 387 401 411 411 408 403 399 392 389 389 377 375 372 382 378 307 296 304 307 316 330 425 414 430 445 408 403 389 393 373 347 368 325 310 310 306
339 345 353 362 373 387 396 407 410 413 413 403 411 410 396 385 383 379 377 372 371 455 463 357 302 295 305 306 317 341 418 429 444 440 398 393 398 372 348 358 321 308 302 301
360 371 380 383 385 387 388 395 405 438 458 459 462 457 450 435 395 380 380 388 464 475 469 376 423 294 293 299 307 328 442 417 435 459 406 400 402 377 356 356 318 310 305 298
371 370 375 386 419 458 483 487 492 500 504 498 487 482 474 465 455 442 432 466 480 477 473 458 438 380 339 293 305 323 363 413 423 447 412 401 402 373 360 357 319 308 309 294
384 466 512 521 523 531 529 525 525 519 512 506 496 488 477 468 462 469 480 482 482 479 472 459 432 379 394 417 385 355 353 417 409 430 455 411 400 377 361 355 322 305 308 290
Wind_Speed
108 108 107 103 107 109 115 117 120 112 119 119 123 128 134 136 126 125 132 128 134 130 132 135 139 141 140 146 149 151 92 69 71 63 66 66 67 67 64 68 64 65 65 66
105 108 108 107 108 110 113 115 116 119 119 122 123 124 123 119 117 121 125 126 128 130 135 139 143 145 147 130 68 67 65 61 62 63 66 74 74 71 68 66 63 63 61 63
108 111 110 103 107 108 106 102 107 116 117 115 113 111 115 119 123 122 128 133 137 139 141 145 151 80 63 63 62 63 61 66 72 72 71 69 67 67 66 63 61 62 59 57
97 100 97 97 95 98 101 105 108 104 105 111 114 116 120 126 131 134 136 139 143 145 111 71 69 67 66 64 64 69 71 71 68 65 66 66 68 67 64 61 57 58 55 53
87 90 89 88 91 95 97 96 103 106 112 118 123 126 131 134 137 140 143 149 83 72 71 69 68 67 65 66 68 68 65 63 66 69 68 66 66 63 61 57 54 53 52 49
89 91 91 89 93 97 99 103 112 117 122 126 129 132 136 142 141 67 72 69 67 66 67 66 66 65 65 64 62 62 64 66 65 64 63 63 62 60 57 53 48 47 47 46
88 92 92 95 99 105 110 115 118 122 126 130 137 116 64 66 73 85 78 63 63 64 63 64 63 63 61 61 63 64 64 61 62 63 63 62 59 57 52 48 44 43 43 44
91 98 102 106 111 114 115 118 126 132 90 62 68 72 74 71 58 59 60 60 62 61 61 61 62 62 62 63 63 61 61 59 60 60 61 59 56 52 49 45 42 41 39 40
101 104 107 108 113 118 122 130 56 97 63 64 64 66 65 64 63 57 55 56 57 57 57 58 60 59 57 59 58 58 56 55 57 57 56 55 52 49 46 42 38 37 37 37
100 106 109 120 123 56 95 98 55 58 60 63 61 59 57 56 57 58 52 52 53 53 53 53 55 54 55 56 56 53 52 52 52 51 50 50 48 45 41 38 36 35 36 35
109 117 120 87 86 89 81 55 53 53 54 54 53 51 51 51 53 53 53 47 50 51 51 50 50 50 53 54 52 49 49 51 47 46 46 44 43 40 38 34 33 33 33 32
81 72 78 83 85 83 60 57 57 55 54 54 49 43 44 44 45 45 46 48 44 46 47 47 48 47 49 51 49 45 46 48 42 41 41 39 38 37 35 31 31 32 32 31
72 77 79 77 79 76 70 68 65 62 58 55 57 51 49 48 48 44 43 42 43 44 41 42 44 44 47 47 44 41 42 43 39 38 36 35 35 32 31 31 30 30 30 29
75 71 72 74 75 70 60 60 60 61 60 59 55 56 51 50 50 48 45 43 43 44 44 41 39 40 45 41 37 37 38 38 36 35 33 32 31 30 28 30 27 29 27 28
67 64 62 63 59 60 53 52 52 53 52 53 57 56 55 52 51 50 47 42 43 44 44 43 39 38 40 36 35 35 35 35 33 31 30 30 28 27 27 29 27 27 27 28
58 59 54 52 53 54 53 52 50 50 49 49 49 51 52 52 52 51 50 46 43 44 44 43 44 38 35 32 32 33 32 32 30 28 28 28 28 27 27 28 28 26 27 26
50 49 51 52 52 53 55 55 56 55 54 51 50 48 47 47 48 48 47 47 43 39 41 41 41 41 31 31 32 31 28 30 27 27 26 27 27 26 27 28 27 27 28 24
48 51 50 50 45 46 51 53 53 53 52 50 49 48 47 46 45 44 43 46 42 38 38 39 39 40 32 31 30 26 27 27 26 25 25 25 26 25 29 28 29 29 28 25
45 46 47 50 51 50 50 50 52 53 54 52 49 47 45 45 43 42 41 43 39 39 36 35 35 35 37 29 28 23 24 25 25 24 24 24 26 25 29 28 31 30 28 26
47 49 50 51 54 56 54 55 55 56 57 55 50 46 43 43 41 40 39 39 38 37 35 32 32 31 31 29 25 24 22 23 24 24 24 25 25 26 29 29 33 31 29 27
50 51 53 54 54 58 60 59 58 59 58 56 52 46 42 42 40 38 37 36 37 33 33 30 31 29 28 29 22 22 21 21 23 24 24 25 25 26 30 31 34 33 30 29
53 55 57 58 59 61 63 65 65 62 59 55 50 34 41 39 37 37 37 32 35 32 32 27 29 28 26 25 27 20 21 21 23 23 24 24 25 29 32 33 36 33 31 30
57 60 61 63 64 67 67 67 66 64 59 54 49 45 41 38 35 32 36 33 31 31 29 26 25 25 24 22 24 20 19 21 23 21 23 24 25 30 33 36 38 34 33 32
61 64 66 68 69 70 68 66 64 61 57 53 50 46 40 35 35 30 31 32 32 29 26 25 22 24 23 21 22 22 18 17 19 21 22 25 25 31 34 39 39 35 33 33
65 68 69 68 66 64 62 60 58 58 55 51 47 44 42 40 33 32 30 30 27 24 24 22 21 22 21 20 20 21 16 13 14 17 23 26 25 32 36 41 40 38 34 33
63 63 64 66 68 65 61 57 53 47 43 39 37 36 33 31 31 30 29 25 22 21 20 19 17 19 19 19 19 19 15 12 13 15 22 24 25 33 37 42 41 39 36 34
64 67 61 54 49 46 43 42 41 39 37 35 31 29 27 25 24 24 23 21 20 17 16 15 12 16 15 14 15 13 13 11 12 14 18 23 25 33 38 44 44 39 38 35
Wind_Direction
280 280 282 282 282 284 284 282 283 283 287 287 288 288 289 288 288 288 290 284 290 282 282 282 281 281 284 284 284 284 282 280 280 279 280 281 281 280 279 276 276 274 272 270
279 279 281 281 283 284 285 286 288 287 289 287 287 287 287 288 290 289 283 282 284 285 286 285 284 285 287 291 282 282 281 279 280 279 280 279 278 278 278 278 278 275 272 269
277 278 281 282 283 287 286 287 289 289 289 290 290 289 287 286 285 287 286 286 285 285 285 286 291 286 283 283 282 281 281 281 281 281 280 280 279 279 280 281 278 275 273 269
281 282 284 284 285 286 288 288 288 290 286 284 284 285 287 286 285 284 285 286 287 290 291 287 286 285 285 283 282 283 282 283 282 280 280 280 280 281 281 282 279 275 273 269
284 285 287 289 290 292 288 286 285 287 289 288 286 285 286 286 286 288 291 292 289 289 289 288 287 286 284 283 283 282 282 281 282 282 281 279 279 280 280 279 277 274 271 266
289 289 289 289 287 286 289 290 288 288 288 288 287 288 289 292 292 289 290 289 289 289 289 288 286 285 285 284 282 281 283 283 282 280 280 280 280 280 280 279 275 271 267 263
289 288 288 289 290 291 291 287 287 288 289 293 294 293 292 291 291 290 290 289 289 288 287 286 285 284 282 282 282 283 283 281 280 280 281 281 281 281 278 276 273 268 263 260
290 292 291 290 290 290 291 294 297 296 295 295 294 293 292 292 292 291 290 290 289 288 286 285 283 282 282 282 281 283 285 280 280 280 280 280 280 278 276 272 269 265 260 255
291 289 290 293 293 297 300 297 300 295 298 298 297 296 296 296 296 295 293 291 288 287 285 283 282 281 280 279 279 281 282 280 280 279 278 278 276 275 275 271 266 259 256 251
293 293 297 299 299 299 298 299 304 304 301 301 301 301 301 301 300 299 295 293 291 290 287 285 283 283 281 279 279 281 282 282 279 277 275 275 275 274 271 267 262 255 251 246
299 300 299 298 299 299 302 309 308 307 307 307 306 306 306 306 304 304 304 294 292 291 289 288 285 283 280 279 278 278 279 279 277 274 273 273 273 273 270 262 255 251 246 242
298 298 297 297 299 302 308 310 311 311 312 314 315 315 312 311 310 309 308 308 301 293 292 290 288 284 281 279 279 278 276 277 277 274 272 271 271 271 268 258 250 244 243 235
296 297 297 298 299 301 304 304 306 306 307 308 309 311 312 312 313 316 319 319 316 315 301 294 288 285 282 281 282 280 275 276 277 274 271 270 269 264 260 258 242 240 234 232
296 298 299 300 301 304 304 303 303 303 302 302 305 308 310 310 310 312 315 318 319 319 320 302 294 287 282 285 286 280 275 274 276 271 268 266 264 260 251 248 237 234 228 226
301 303 302 303 304 304 310 311 312 308 306 301 298 298 299 303 308 309 312 314 314 317 322 323 304 292 288 287 282 280 276 274 275 267 263 261 259 252 243 235 237 225 222 217
303 305 309 311 311 312 313 317 318 321 319 313 308 304 301 296 297 306 311 315 314 316 319 323 324 303 296 286 278 278 275 271 273 265 258 255 253 248 235 228 228 226 214 215
303 305 308 311 311 313 314 315 314 317 320 321 317 311 305 301 297 294 294 310 312 313 315 319 323 323 293 283 283 281 275 268 269 262 255 250 246 241 229 223 219 213 203 212
309 308 310 311 316 313 312 315 317 320 322 323 318 313 310 305 302 300 297 308 311 312 315 315 320 323 295 286 284 290 278 268 266 258 250 246 240 233 218 215 213 202 200 202
312 312 312 314 315 316 315 313 315 318 321 324 322 316 311 306 305 300 300 305 314 309 311 314 317 319 324 289 284 286 279 264 260 255 243 240 238 228 215 209 204 194 195 199
317 318 317 316 315 317 319 319 320 321 321 323 323 319 314 307 303 302 299 296 298 303 310 312 315 318 321 314 283 289 280 267 253 249 237 236 233 225 211 206 198 192 194 192
317 317 317 319 320 320 321 321 322 320 322 322 322 320 315 309 304 300 300 299 297 295 307 310 311 315 318 320 288 282 275 263 246 243 235 231 227 217 205 204 193 189 191 190
318 320 321 322 322 322 322 321 321 321 321 321 320 324 315 309 305 302 298 299 298 296 291 305 307 311 315 318 321 279 271 258 247 241 234 226 223 207 201 200 190 190 189 188
323 323 323 322 322 321 321 320 321 321 321 320 319 316 314 309 306 303 299 301 299 296 291 298 305 305 311 317 317 278 276 263 250 239 231 224 218 204 198 195 188 187 185 185
325 322 322 321 321 321 321 321 320 320 319 318 316 312 310 308 305 304 299 298 300 296 291 292 299 307 308 315 316 314 278 267 253 242 224 221 214 201 197 192 187 187 186 184
325 324 322 322 322 323 323 321 319 318 317 315 312 311 309 306 304 305 303 301 301 295 289 288 279 303 310 312 314 308 264 265 252 239 221 220 211 199 195 191 187 186 185 184
328 327 326 324 321 320 321 319 318 318 320 321 319 316 313 310 307 303 302 305 302 297 288 281 275 279 295 309 307 302 294 259 242 232 221 217 209 197 194 190 187 185 184 183
331 326 325 324 323 325 327 329 332 332 332 331 331 326 322 319 315 312 310 309 306 301 288 280 271 281 284 273 265 275 288 257 242 227 220 214 207 197 193 189 187 185 183 182